• In Latvia
  • List of Countries
  • For 7 days
  • Water Temperature
  • Satellite Maps
  • Weather Map
  • Weather Widgets
  • user-avatar
    Login

    Hourly Weather Beskid

    Today, 21 October, Sunday

    Time Temperature Precipitation Wind Pressure Humidity
    00:00 -4°C° 0 mm 2 mps 603 mmHg 86%
    01:00 -5°C° 0 mm 2 mps 602 mmHg 86%
    02:00 -5°C° 0 mm 2 mps 602 mmHg 87%
    03:00 -6°C° 0 mm 2 mps 602 mmHg 88%
    04:00 -6°C° 0 mm 2 mps 601 mmHg 89%
    05:00 -6°C° 0.2 mm 2 mps 602 mmHg 88%
    06:00 -5°C° 0.2 mm 2 mps 602 mmHg 88%
    07:00 -6°C° 0 mm 3 mps 603 mmHg 87%
    08:00 -6°C° 0.4 mm 3 mps 603 mmHg 87%
    09:00 -5°C° 0.4 mm 3 mps 603 mmHg 86%
    10:00 -5°C° 0.4 mm 3 mps 604 mmHg 86%
    11:00 -4°C° 0 mm 3 mps 604 mmHg 85%
    12:00 -4°C° 0 mm 3 mps 604 mmHg 83%
    13:00 -2°C° 0 mm 3 mps 605 mmHg 82%
    14:00 -2°C° 0 mm 3 mps 605 mmHg 82%
    15:00 -2°C° 0 mm 2 mps 605 mmHg 82%
    16:00 -2°C° 0 mm 2 mps 605 mmHg 83%
    17:00 -3°C° 0 mm 2 mps 604 mmHg 85%
    18:00 -4°C° 0 mm 2 mps 604 mmHg 87%
    19:00 -4°C° 0 mm 2 mps 604 mmHg 89%
    20:00 -5°C° 0 mm 2 mps 604 mmHg 90%
    21:00 -3°C° 0 mm 1 mps 604 mmHg 91%
    22:00 -4°C° 0 mm 1 mps 604 mmHg 92%
    23:00 -4°C° 0 mm 1 mps 604 mmHg 91%

    Tomorrow, 22 October, Monday

    Time Temperature Precipitation Wind Pressure Humidity
    00:00 -4°C° 0 mm 1 mps 604 mmHg 90%
    01:00 -4°C° 0 mm 1 mps 603 mmHg 89%
    02:00 -4°C° 0 mm 1 mps 603 mmHg 88%
    03:00 -6°C° 0 mm 1 mps 603 mmHg 87%
    04:00 -6°C° 0 mm 1 mps 603 mmHg 87%
    05:00 -4°C° 0 mm 1 mps 603 mmHg 85%
    06:00 -4°C° 0 mm 1 mps 603 mmHg 83%
    07:00 -4°C° 0 mm 1 mps 603 mmHg 81%
    08:00 -2°C° 0 mm 0 mps 605 mmHg 73%
    09:00 0°C° 0 mm 0 mps 606 mmHg 64%
    10:00 +3°C° 0 mm 0 mps 607 mmHg 56%
    11:00 +3°C° 0 mm 0 mps 607 mmHg 54%
    12:00 +5°C° 0 mm 1 mps 607 mmHg 53%
    13:00 +6°C° 0 mm 1 mps 607 mmHg 51%
    14:00 +5°C° 0 mm 1 mps 606 mmHg 57%
    15:00 +3°C° 0 mm 1 mps 605 mmHg 62%
    16:00 +2°C° 0 mm 1 mps 604 mmHg 68%
    17:00 +1°C° 0 mm 1 mps 604 mmHg 73%
    18:00 -1°C° 0 mm 1 mps 603 mmHg 79%
    19:00 -2°C° 0 mm 1 mps 603 mmHg 84%
    20:00 -2°C° 0 mm 1 mps 603 mmHg 85%
    21:00 -3°C° 0 mm 1 mps 603 mmHg 86%
    22:00 -3°C° 0 mm 1 mps 603 mmHg 87%
    23:00 -2°C° 0.1 mm 1 mps 603 mmHg 85%

    Day after tomorrow, 23 October, Tuesday

    Time Temperature Precipitation Wind Pressure Humidity
    00:00 -2°C° 0.1 mm 1 mps 603 mmHg 84%
    01:00 -2°C° 0.1 mm 1 mps 603 mmHg 82%
    02:00 -2°C° 0.2 mm 1 mps 603 mmHg 84%
    03:00 -4°C° 0.2 mm 2 mps 603 mmHg 85%
    04:00 -4°C° 0.2 mm 2 mps 603 mmHg 87%
    05:00 -4°C° 0 mm 2 mps 602 mmHg 88%
    06:00 -2°C° 0 mm 1 mps 602 mmHg 89%
    07:00 -3°C° 0 mm 1 mps 602 mmHg 90%
    08:00 -2°C° 0 mm 1 mps 602 mmHg 84%
    09:00 -3°C° 0 mm 2 mps 602 mmHg 77%
    10:00 -2°C° 0 mm 2 mps 603 mmHg 70%
    11:00 -2°C° 0 mm 2 mps 602 mmHg 66%
    12:00 -2°C° 0 mm 3 mps 602 mmHg 63%
    13:00 -1°C° 0 mm 3 mps 601 mmHg 59%
    14:00 -2°C° 0.2 mm 3 mps 600 mmHg 64%
    15:00 -4°C° 0.2 mm 3 mps 599 mmHg 69%
    16:00 -5°C° 0.2 mm 3 mps 598 mmHg 73%
    17:00 -5°C° 0.1 mm 3 mps 597 mmHg 76%
    18:00 -5°C° 0.1 mm 4 mps 597 mmHg 78%
    19:00 -7°C° 0.1 mm 4 mps 596 mmHg 81%
    20:00 -7°C° 0.5 mm 4 mps 595 mmHg 82%
    21:00 -7°C° 0.5 mm 4 mps 595 mmHg 83%
    22:00 -6°C° 0.5 mm 5 mps 594 mmHg 85%
    23:00 -6°C° 0.7 mm 5 mps 593 mmHg 85%

    24 October, Wednesday

    Time Temperature Precipitation Wind Pressure Humidity
    00:00 -5°C° 0.7 mm 5 mps 593 mmHg 85%
    01:00 -5°C° 0.7 mm 6 mps 592 mmHg 85%
    02:00 -4°C° 1.1 mm 6 mps 592 mmHg 86%
    03:00 -4°C° 1.1 mm 7 mps 591 mmHg 86%
    04:00 -4°C° 1.1 mm 7 mps 591 mmHg 86%
    05:00 -6°C° 1.7 mm 7 mps 591 mmHg 85%
    06:00 -6°C° 1.7 mm 7 mps 591 mmHg 83%
    07:00 -7°C° 1.7 mm 7 mps 590 mmHg 81%
    08:00 -8°C° 0.3 mm 8 mps 591 mmHg 76%
    09:00 -10°C° 0.3 mm 8 mps 591 mmHg 72%
    10:00 -10°C° 0.3 mm 8 mps 592 mmHg 67%
    11:00 -10°C° 0.1 mm 8 mps 592 mmHg 64%
    12:00 -10°C° 0.1 mm 8 mps 592 mmHg 61%
    13:00 -10°C° 0.1 mm 8 mps 593 mmHg 58%
    14:00 -9°C° 0.1 mm 7 mps 593 mmHg 60%
    15:00 -9°C° 0.1 mm 7 mps 593 mmHg 61%
    16:00 -9°C° 0.1 mm 6 mps 593 mmHg 63%
    17:00 -10°C° 0.1 mm 6 mps 594 mmHg 64%
    18:00 -10°C° 0.1 mm 6 mps 594 mmHg 66%
    19:00 -10°C° 0.1 mm 6 mps 594 mmHg 67%
    20:00 -11°C° 0 mm 5 mps 594 mmHg 68%
    21:00 -11°C° 0 mm 5 mps 594 mmHg 70%
    22:00 -11°C° 0 mm 5 mps 595 mmHg 71%
    23:00 -11°C° 0 mm 4 mps 595 mmHg 74%

    25 October, Thursday

    Time Temperature Precipitation Wind Pressure Humidity
    00:00 -11°C° 0 mm 4 mps 595 mmHg 76%
    01:00 -11°C° 0 mm 4 mps 595 mmHg 79%
    02:00 -12°C° 0 mm 3 mps 595 mmHg 81%
    03:00 -12°C° 0 mm 3 mps 595 mmHg 83%
    04:00 -12°C° 0 mm 3 mps 595 mmHg 85%
    05:00 -12°C° 0 mm 3 mps 595 mmHg 85%
    06:00 -10°C° 0 mm 2 mps 595 mmHg 85%
    07:00 -9°C° 0 mm 2 mps 595 mmHg 85%
    08:00 -8°C° 0.2 mm 2 mps 595 mmHg 84%
    09:00 -8°C° 0.2 mm 3 mps 595 mmHg 83%
    10:00 -7°C° 0.2 mm 3 mps 596 mmHg 82%
    11:00 -5°C° 0.2 mm 3 mps 596 mmHg 82%
    12:00 -4°C° 0.2 mm 4 mps 596 mmHg 83%
    13:00 -3°C° 0.2 mm 4 mps 596 mmHg 84%
    14:00 -3°C° 0.1 mm 4 mps 596 mmHg 86%
    15:00 -3°C° 0.1 mm 4 mps 596 mmHg 87%
    16:00 -2°C° 0.1 mm 3 mps 596 mmHg 89%
    17:00 -4°C° 0.1 mm 3 mps 596 mmHg 90%
    18:00 -4°C° 0.1 mm 3 mps 596 mmHg 92%
    19:00 -4°C° 0.1 mm 3 mps 596 mmHg 93%
    20:00 -4°C° 0.1 mm 3 mps 596 mmHg 93%
    21:00 -4°C° 0.1 mm 3 mps 596 mmHg 92%
    22:00 -4°C° 0.1 mm 3 mps 596 mmHg 92%
    23:00 -5°C° 0 mm 3 mps 596 mmHg 93%

    26 October, Friday

    Time Temperature Precipitation Wind Pressure Humidity
    00:00 -4°C° 0 mm 2 mps 596 mmHg 93%
    01:00 -4°C° 0 mm 2 mps 596 mmHg 94%
    02:00 -4°C° 0 mm 2 mps 596 mmHg 94%
    03:00 -4°C° 0 mm 2 mps 596 mmHg 94%
    04:00 -4°C° 0 mm 2 mps 596 mmHg 93%
    05:00 -5°C° 0 mm 2 mps 596 mmHg 93%
    06:00 -3°C° 0 mm 1 mps 596 mmHg 93%
    07:00 -3°C° 0 mm 1 mps 596 mmHg 93%
    08:00 -2°C° 0 mm 1 mps 597 mmHg 87%
    09:00 0°C° 0 mm 1 mps 598 mmHg 80%
    10:00 +1°C° 0 mm 2 mps 599 mmHg 73%
    11:00 +2°C° 0 mm 2 mps 599 mmHg 70%
    12:00 +2°C° 0 mm 2 mps 599 mmHg 66%
    13:00 +3°C° 0 mm 2 mps 599 mmHg 63%
    14:00 +2°C° 0 mm 2 mps 598 mmHg 69%
    15:00 +1°C° 0 mm 2 mps 597 mmHg 74%
    16:00 -1°C° 0 mm 2 mps 596 mmHg 79%
    17:00 -2°C° 0 mm 2 mps 596 mmHg 82%
    18:00 -3°C° 0 mm 2 mps 595 mmHg 86%
    19:00 -4°C° 0 mm 2 mps 595 mmHg 89%
    20:00 -3°C° 0 mm 2 mps 595 mmHg 90%
    21:00 -3°C° 0 mm 2 mps 595 mmHg 91%
    22:00 -2°C° 0 mm 3 mps 595 mmHg 91%
    23:00 -2°C° 0 mm 3 mps 594 mmHg 92%
    Show more